Terminal Aerodrome Forecast
Issued by NWS

Home | Current Version | Previous Version | Text Only | Print | Product List | Glossary On
Versions: 1 2 3 4 5 6 7 8 9 10 11 12 13 14 15 16 17 18 19 20 21 22 23 24 25 26 27 28 29 30 31 32
000
FTAK31 PAFA 280527
TAFABT
TAF
PABT 280527Z 2806/2906 25003KT P6SM VCSH SCT004 BKN025
     FM281100 15003KT P6SM VCFG SCT025 BKN050 OVC100
     FM281600 VRB03KT 4SM BR SCT050 BKN100
     FM282100 20003KT P6SM -RA OVC025=

USA.gov is the U.S. government's official web portal to all federal, state and local government web resources and services.